Flag Weather past 2 weeks in Pratteln, Basel-Land, Switzerland

Now
64 °F

Passing clouds.


Feels Like: 64 °F
Forecast: 39 / 60 °F
Wind: 3 mph from North

Location: Bale-Mulhouse

Current Time: Oct 30, 2014 at 3:57:41 PM

Latest Report: Oct 30, 2014 at 3:00 PM


Visibility: N/A

Pressure: 30.24 "Hg

Humidity: 49%

Dew point: 45 °F

Location of PrattelnLocation

Historic Weather in Pratteln — Graph

°F

Pratteln temperature yesterday

Maximum temperature yesterday: 63 °F (at 1:00 PM)
Minimum temperature yesterday: 39 °F (at 2:00 AM)
Average temperature yesterday: 49 °F

Past Weeks' High & Low Weather Summary

 TemperatureHumidityPressure
High75 °F (Oct 18, 4:30 PM)100% (Oct 15, 11:30 PM)30.30 "Hg (Oct 15, 11:30 PM)
Low34 °F (Oct 24, 5:00 AM)44% (Oct 23, 3:30 PM)29.74 "Hg (Oct 17, 5:30 AM)
Average54 °F84%30.12 "Hg
* Reported Oct 15 3:00 PM — Oct 30 2:30 PM, Pratteln, Weather by CustomWeather, © 2014

Note: Actual official high and low records may vary slightly from our data, if they occured in-between our weather recording intervals... More about our weather records

Advertising

Pratteln weather history for previous 24 hours

 ConditionsComfort  
Time TempWeatherWind HumidityBarometerVisibility
2:30 PM
Oct 30
64 °FPassing clouds.3 mph56%30.24 "HgN/A
2:00 PM64 °FSunny.1 mph56%30.24 "Hg10 mi
1:30 PM63 °FPassing clouds.2 mph59%30.24 "HgN/A
1:00 PM63 °FPassing clouds.3 mph64%30.24 "HgN/A
12:30 PM61 °FPassing clouds.6 mph68%30.24 "HgN/A
11:30 AM59 °FPassing clouds.5 mph72%30.27 "HgN/A
11:00 AM57 °FPassing clouds.5 mph77%30.27 "HgN/A
10:30 AM55 °FPassing clouds.5 mph82%30.27 "HgN/A
10:00 AM54 °FClear.5 mph88%30.27 "Hg6 mi
9:30 AM52 °FClear.3 mph94%30.24 "Hg6 mi
9:00 AM52 °FClear.2 mph88%30.24 "Hg6 mi
8:30 AM50 °FPartly sunny.2 mph94%30.24 "Hg5 mi
8:00 AM50 °FPartly sunny.3 mph94%30.24 "Hg5 mi
7:30 AM48 °FBroken clouds.2 mph94%30.24 "HgN/A
7:00 AM48 °FPartly cloudy.5 mph94%30.21 "HgN/A
6:30 AM48 °FPartly cloudy.3 mph94%30.21 "HgN/A
6:00 AM48 °FClear.2 mph94%30.21 "Hg10 mi
5:30 AM48 °FClear.2 mph94%30.21 "Hg10 mi
5:00 AM48 °FClear.3 mph94%30.21 "Hg10 mi
4:30 AM48 °FClear.2 mph94%30.18 "Hg10 mi
4:00 AM48 °FClear.3 mph94%30.18 "Hg6 mi
3:30 AM48 °FClear.3 mph94%30.18 "HgN/A
3:00 AM48 °FClear.5 mph94%30.18 "HgN/A
2:30 AM48 °FClear.2 mph94%30.18 "HgN/A
2:00 AM48 °FClear.2 mph94%30.18 "HgN/A
1:30 AM48 °FClear.3 mph94%30.18 "HgN/A
1:00 AM48 °FClear.5 mph94%30.18 "HgN/A
12:30 AM48 °FClear.2 mph94%30.18 "HgN/A
12:00 AM48 °FLight rain. Clear.5 mph94%30.18 "Hg6 mi
11:30 PM
Oct 29
46 °FClear.5 mph100%30.18 "Hg6 mi
11:00 PM45 °FClear.3 mph93%30.18 "Hg6 mi
10:30 PM45 °FClear.2 mph93%30.18 "Hg6 mi
10:00 PM45 °FPassing clouds.3 mph93%30.15 "HgN/A
9:30 PM46 °FClear.2 mph93%30.15 "Hg10 mi
9:00 PM46 °FClear.5 mph93%30.15 "Hg10 mi
8:30 PM46 °FClear.3 mph93%30.15 "Hg10 mi
8:00 PM45 °FClear.2 mph93%30.12 "Hg10 mi
7:30 PM48 °FClear.2 mph87%30.12 "Hg10 mi
7:07 PM50 °FClear.2 mph82%30.12 "Hg10 mi
6:30 PM52 °FClear.2 mph82%30.09 "Hg10 mi
6:00 PM52 °FClear.No wind77%30.09 "Hg10 mi
5:30 PM55 °FClear.2 mph72%30.09 "Hg10 mi
5:00 PM59 °FScattered clouds.5 mph63%30.09 "HgN/A
4:30 PM61 °FPartly sunny.8 mph59%30.09 "HgN/A
4:00 PM63 °FScattered clouds.8 mph56%30.09 "HgN/A
3:30 PM63 °FScattered clouds.9 mph56%30.09 "HgN/A
3:00 PM63 °FScattered clouds.8 mph56%30.07 "HgN/A
Weather by CustomWeather, © 2014

See weather overviewHow to use our weather pages